Weather in Bereznyaki

Russia / Kamchatka Krai     53°16′00″N   158°04′59″E
temp.,
°C
wind,
m/s
gust,
m/s
humid.,
%
clouds,
%
prec.,
mm/h
press.,
hPa
HPBL,
m
28 february, sun
sun2800:00−14nne3486100 0.3 100932
03:00−13n3476100 0.0 100824
06:00−14nnw3374100 0.0 100623
09:00−13nw2275100 0.0 100524
12:00−8nnw41071100 0.0 1003631
15:00−8w447383 0.0 1001389
18:00−11w448389 0.0 999132
21:00−15w548953 0.0 99832
1 march, mon
mon100:00−15w549457 0.0 99653
03:00−17w549673 0.0 99548
06:00−16wsw559673 0.1 99566
09:00−15wsw559571 0.1 996122
12:00−9w10148383 0.1 9971036
15:00−8w16187888 0.1 9971272
18:00−10w13178579 0.1 998764
21:00−11w11189059 0.1 1002508
2 march, tue
tue200:00−13w9208643 0.1 1003464
03:00−11w12209062 0.1 1006542
06:00−14w559261 0.1 100872
09:00−16w44880 0.0 101328
12:00−10w11168026 0.0 10161439
15:00−10w12147992 0.2 10201699
18:00−12w10148292 0.3 1023832
21:00−15wsw449488 0.1 102765
3 march, wed
wed300:00−17wsw229494 0.1 102820
03:00−16ne1191100 0.0 102520
06:00−15ene4496100 0.5 1021178
09:00−14ne4496100 3.6 1015163
12:00−12ne4595100 6.9 1007237
15:00−11ne4595100 4.0 998235
18:00−9nne2396100 10.0 989121
21:00−6nne2397100 6.1 97982
4 march, thu
thu400:00−7sw162189100 8.5 9811060
03:00−11w18248985 0.9 9901248
06:00−14w18248885 1.3 9961170
09:00−16w16248585 0.4 10021649
12:00−14w19258590 0.8 10061872
15:00−12wsw18258691 0.4 10091890
18:00−10sw11218891 1.2 10091837
21:00−8sw132490100 1.6 10071493